Location: Unspecified
(0.0000°N, 0.0000°E)
Time: 22:28:40
(UTC+00:00)

Vanguard 1 - Pass Details

Date: 21 December 2018
Orbit: 650 x 3834 km, 34.3° (Epoch: 19 January)

Event Time Altitude Azimuth Distance (km) Brightness Sun altitude
Rises 18:43:51 0° 237° (WSW) 7,830 16.7 -10.5°
Reaches altitude 10° 18:52:40 10° 220° (SW) 6,942 15.5 -12.5°
Maximum altitude 19:06:47 18° 183° (S) 5,927 14.3 -15.7°
Drops below altitude 10° 19:18:53 10° 144° (SE) 5,906 13.9 -18.4°
Sets 19:25:16 0° 126° (SE) 6,352 13.9 -19.9°
